Weather History for Scottsbluff, NE

Change the Weather History Date:

Sunday, March 31, 2013

  Actual Average Record
Temperature  
Mean Temperature 46 °F 42 °F  
Max Temperature 69 °F 57 °F 84 °F (1946)
Min Temperature 23 °F 28 °F 4 °F (1896)
Degree Days  
Heating Degree Days 19 23  
Month to date heating degree days 817 830  
Since 1 July heating degree days 5338 5741  
Cooling Degree Days 0 0  
Month to date cooling degree days 0 0  
Year to date cooling degree days 0 0  
Moisture  
Dew Point 26 °F    
Average Humidity 61    
Maximum Humidity 100    
Minimum Humidity 22    
Precipitation  
Precipitation 0.00 in 0.04 in 1.80 in (1927)
Month to date precipitation 0.21 1.00  
Year to date precipitation 0.75 2.01  
Snow  
Snow 0.00 in 0.20 in 4.20 in (1980)
Month to date snowfall 1.9 7.8  
Since 1 July snowfall 22.9 36.2  
Snow Depth 0.00 in    
Sea Level Pressure  
Sea Level Pressure 30.05 in    
Wind  
Wind Speed 11 mph (NNE)    
Max Wind Speed 29 mph    
Max Gust Speed 35 mph    
Visibility 8 miles    
Events Fog    
T = Trace of Precipitation, MM = Missing Value Source: NWS Daily Summary

Daily Weather History Graph

Daily Weather History Graph

Search for Another Location

Airport:

Trip Planner

Search our weather history database for the weather conditions in past years. The results will help you decide how hot, cold, wet, or windy it might be!

Date:

Astronomy

Mar. 31, 2013 Rise Set
Actual Time 6:38 AM MDT 7:19 PM MDT
Civil Twilight 6:10 AM MDT 7:47 PM MDT
Nautical Twilight 5:37 AM MDT 8:20 PM MDT
Astronomical Twilight 5:02 AM MDT 8:55 PM MDT
Moon No Moon Rise 9:24 AM MDT (3/31)
Length of Visible Light 13h 37m
Length of Day
12h 40m
Waning Gibbous, 77% of the Moon is Illuminated
Mar 31
Waning Gibbous
Apr 2
Last Quarter
Apr 10
New
Apr 18
First Quarter
Apr 25
Full

Hourly Weather History & Observations

Time (MDT) Temp. Windchill Dew Point Humidity Pressure Visibility Wind Dir Wind Speed Gust Speed Precip Events Conditions
12:53 AM 33.1 °F 28.7 °F 30.9 °F 92% 30.17 in 10.0 mi NNW 4.6 mph - N/A   Clear
1:53 AM 28.9 °F 23.9 °F 27.0 °F 92% 30.17 in 10.0 mi NW 4.6 mph - N/A   Clear
2:53 AM 28.9 °F 25.2 °F 27.0 °F 92% 30.14 in 10.0 mi NNW 3.5 mph - N/A   Clear
3:53 AM 28.0 °F 24.2 °F 26.1 °F 92% 30.12 in 10.0 mi North 3.5 mph - N/A   Clear
4:53 AM 26.1 °F 19.4 °F 24.1 °F 92% 30.11 in 10.0 mi NNE 5.8 mph - N/A   Clear
5:53 AM 24.1 °F - 21.9 °F 91% 30.10 in 10.0 mi Calm Calm - N/A   Clear
6:48 AM 24.8 °F 19.1 °F 21.2 °F 86% 30.05 in 1.5 mi ESE 4.6 mph - N/A   Partly Cloudy
6:50 AM 24.8 °F 19.1 °F 21.2 °F 86% 30.06 in 0.8 mi ESE 4.6 mph - N/A   Mist
6:53 AM 23.0 °F 15.8 °F 21.0 °F 92% 30.11 in 0.2 mi ESE 5.8 mph - N/A Fog Light Freezing Fog
7:05 AM 24.8 °F - 23.0 °F 93% 30.06 in 0.5 mi Calm Calm - N/A Fog Light Freezing Fog
7:12 AM 26.6 °F - 24.8 °F 93% 30.06 in 0.2 mi Calm Calm - N/A Fog Light Freezing Fog
7:39 AM 26.6 °F - 26.6 °F 100% 30.05 in 1.0 mi Calm Calm - N/A   Mist
7:41 AM 26.6 °F - 26.6 °F 100% 30.05 in 3.0 mi Calm Calm - N/A   Scattered Clouds
7:53 AM 28.9 °F 25.2 °F 28.0 °F 96% 30.10 in 10.0 mi ESE 3.5 mph - N/A   Partly Cloudy
8:53 AM 35.1 °F 31.0 °F 34.0 °F 96% 30.07 in 10.0 mi ENE 4.6 mph - N/A   Clear
9:53 AM 44.1 °F - 36.0 °F 73% 30.04 in 10.0 mi Calm Calm - N/A   Clear
10:53 AM 50.0 °F - 34.0 °F 54% 30.01 in 10.0 mi Variable 3.5 mph - N/A   Clear
11:53 AM 60.1 °F - 27.0 °F 28% 29.98 in 10.0 mi WNW 12.7 mph - N/A   Clear
12:53 PM 64.9 °F - 28.0 °F 25% 29.94 in 10.0 mi WNW 16.1 mph 21.9 mph N/A   Clear
1:53 PM 66.9 °F - 28.9 °F 24% 29.92 in 10.0 mi WNW 20.7 mph 29.9 mph N/A   Clear
2:53 PM 68.0 °F - 30.0 °F 24% 29.90 in 10.0 mi NW 18.4 mph 29.9 mph N/A   Clear
3:53 PM 68.0 °F - 28.9 °F 23% 29.90 in 10.0 mi NW 19.6 mph 34.5 mph N/A   Clear
4:53 PM 66.9 °F - 28.0 °F 23% 29.91 in 10.0 mi NNW 21.9 mph 33.4 mph N/A   Clear
5:53 PM 64.0 °F - 26.1 °F 24% 29.94 in 10.0 mi North 25.3 mph 32.2 mph N/A   Partly Cloudy
6:53 PM 55.9 °F - 28.0 °F 34% 29.99 in 10.0 mi NNE 20.7 mph 26.5 mph N/A   Partly Cloudy
7:53 PM 50.0 °F - 28.9 °F 44% 30.04 in 10.0 mi NNE 12.7 mph - N/A   Clear
8:53 PM 44.1 °F 38.1 °F 24.1 °F 45% 30.10 in 10.0 mi East 11.5 mph - N/A   Clear
9:53 PM 41.0 °F 33.5 °F 19.9 °F 43% 30.13 in 10.0 mi ENE 13.8 mph - N/A   Clear
10:53 PM 36.0 °F 27.1 °F 17.1 °F 46% 30.16 in 10.0 mi ENE 13.8 mph - N/A   Clear
11:53 PM 34.0 °F 26.0 °F 17.1 °F 50% 30.17 in 10.0 mi East 10.4 mph - N/A   Clear